CCA4164 ZBAA-ZUGY

Flight info

Callsign CCA4164
Flight time 2h 48m
Altitude 30100
Route PEGSO B215 GODON W43 SAVPA W696 MENED W276 ARELA W30 TAMUS W180 MEMAG
Aircraft B38M/M-SDE1FGHILORVWXY/HB1

Departure

Time 2026-04-20 05:06
Airport Beijing Capital International Airport (ZBAA)

Arrival

Time 2026-04-20 07:55
Airport Guiyang Longdongbao International Airport (ZUGY)
Time Latitude Longitude Altitude Speed Heading
2026-04-20 04:47 40.05915 116.60715 126 ft 0 kts 63°
2026-04-20 04:59 40.05913 116.60711 126 ft 3 kts 64°
2026-04-20 04:59 40.05904 116.60678 127 ft 4 kts 78°
2026-04-20 04:59 40.05900 116.60644 123 ft 4 kts 86°
2026-04-20 04:59 40.05898 116.60610 123 ft 2 kts 82°
2026-04-20 05:00 40.05899 116.60581 126 ft 4 kts 118°
2026-04-20 05:00 40.05916 116.60568 123 ft 4 kts 181°
2026-04-20 05:00 40.05939 116.60569 122 ft 1 kts 173°
2026-04-20 05:00 40.05940 116.60569 122 ft 1 kts 172°
2026-04-20 05:02 40.05938 116.60569 122 ft 1 kts 172°
2026-04-20 05:02 40.05902 116.60575 121 ft 10 kts 172°
2026-04-20 05:03 40.05795 116.60593 125 ft 16 kts 173°
2026-04-20 05:03 40.05702 116.60607 123 ft 15 kts 174°
2026-04-20 05:03 40.05608 116.60615 124 ft 8 kts 192°
2026-04-20 05:03 40.05577 116.60560 124 ft 8 kts 263°
2026-04-20 05:04 40.05571 116.60482 124 ft 9 kts 264°
2026-04-20 05:04 40.05564 116.60390 124 ft 11 kts 264°
2026-04-20 05:04 40.05554 116.60289 125 ft 12 kts 264°
2026-04-20 05:04 40.05544 116.60177 122 ft 13 kts 263°
2026-04-20 05:05 40.05560 116.60062 123 ft 14 kts 301°
2026-04-20 05:05 40.05640 116.60001 123 ft 14 kts 354°
2026-04-20 05:05 40.05777 116.59981 123 ft 41 kts 352°
2026-04-20 05:05 40.06347 116.59889 122 ft 121 kts 353°
2026-04-20 05:06 40.07391 116.59706 154 ft 182 kts 345°
2026-04-20 05:06 40.08764 116.59429 476 ft 217 kts 349°
2026-04-20 05:06 40.10316 116.59177 1427 ft 222 kts 350°
2026-04-20 05:06 40.11871 116.58970 2433 ft 231 kts 349°
2026-04-20 05:07 40.13523 116.58730 3198 ft 248 kts 349°
2026-04-20 05:07 40.15279 116.58464 4105 ft 255 kts 349°
2026-04-20 05:07 40.17044 116.58191 5265 ft 255 kts 349°
2026-04-20 05:07 40.18827 116.57913 5853 ft 258 kts 349°
2026-04-20 05:08 40.20605 116.57632 5958 ft 257 kts 349°
2026-04-20 05:08 40.22332 116.57360 6869 ft 250 kts 349°
2026-04-20 05:08 40.24036 116.57065 8021 ft 244 kts 343°
2026-04-20 05:08 40.25517 116.56111 9104 ft 237 kts 322°
2026-04-20 05:09 40.26803 116.54729 10019 ft 241 kts 320°
2026-04-20 05:09 40.28107 116.53285 10651 ft 254 kts 320°
2026-04-20 05:09 40.29499 116.51714 10996 ft 274 kts 319°
2026-04-20 05:09 40.30837 116.49820 11309 ft 294 kts 303°
2026-04-20 05:10 40.31550 116.47238 11885 ft 313 kts 283°
2026-04-20 05:10 40.31625 116.44367 12544 ft 322 kts 276°
2026-04-20 05:10 40.31642 116.41430 13312 ft 326 kts 276°
2026-04-20 05:10 40.31651 116.38436 13990 ft 330 kts 276°
2026-04-20 05:11 40.31654 116.35417 14693 ft 332 kts 275°
2026-04-20 05:11 40.31655 116.32397 15370 ft 335 kts 275°
2026-04-20 05:11 40.31654 116.29331 16030 ft 336 kts 274°
2026-04-20 05:11 40.31653 116.26257 16710 ft 338 kts 274°
2026-04-20 05:12 40.31650 116.23162 17284 ft 342 kts 274°
2026-04-20 05:12 40.31646 116.20037 17929 ft 344 kts 273°
2026-04-20 05:12 40.31641 116.16930 18488 ft 347 kts 273°
2026-04-20 05:12 40.31635 116.13764 19016 ft 348 kts 273°
2026-04-20 05:13 40.31629 116.10588 19593 ft 349 kts 273°
2026-04-20 05:13 40.31621 116.07396 20108 ft 351 kts 273°
2026-04-20 05:13 40.31613 116.04203 20691 ft 350 kts 272°
2026-04-20 05:13 40.31525 116.00995 21091 ft 357 kts 264°
2026-04-20 05:14 40.30730 115.97887 21679 ft 366 kts 247°
2026-04-20 05:14 40.29175 115.95205 22245 ft 380 kts 230°
2026-04-20 05:14 40.26977 115.93168 22767 ft 395 kts 216°
2026-04-20 05:14 40.24575 115.91518 23305 ft 396 kts 216°
2026-04-20 05:15 40.22125 115.89824 23702 ft 399 kts 216°
2026-04-20 05:15 40.19663 115.88140 24106 ft 401 kts 216°
2026-04-20 05:15 40.17165 115.86443 24392 ft 405 kts 216°
2026-04-20 05:15 40.14671 115.84752 24912 ft 404 kts 216°
2026-04-20 05:16 40.12166 115.83059 25243 ft 407 kts 216°
2026-04-20 05:16 40.09640 115.81362 25596 ft 408 kts 217°
2026-04-20 05:16 40.07124 115.79651 26013 ft 408 kts 217°
2026-04-20 05:16 40.04623 115.77959 26227 ft 413 kts 217°
2026-04-20 05:17 40.02072 115.76237 26643 ft 412 kts 217°
2026-04-20 05:17 39.99523 115.74518 27022 ft 414 kts 217°
2026-04-20 05:17 39.96955 115.72786 27356 ft 416 kts 217°
2026-04-20 05:17 39.94380 115.71053 27737 ft 418 kts 217°
2026-04-20 05:18 39.91787 115.69310 28146 ft 420 kts 217°
2026-04-20 05:18 39.89188 115.67565 28528 ft 422 kts 217°
2026-04-20 05:18 39.86499 115.65959 28818 ft 434 kts 208°
2026-04-20 05:18 39.83451 115.65230 29213 ft 459 kts 192°
2026-04-20 05:19 39.80259 115.65613 29621 ft 481 kts 177°
2026-04-20 05:19 39.77001 115.66897 29935 ft 491 kts 172°
2026-04-20 05:19 39.73738 115.68224 30163 ft 493 kts 173°
2026-04-20 05:20 39.67131 115.70853 30158 ft 497 kts 173°
2026-04-20 05:20 39.60515 115.73506 30158 ft 501 kts 174°
2026-04-20 05:21 39.53860 115.76151 30193 ft 501 kts 174°
2026-04-20 05:21 39.47243 115.78779 30189 ft 500 kts 174°
2026-04-20 05:22 39.40585 115.81419 30145 ft 501 kts 174°
2026-04-20 05:22 39.33893 115.84067 30195 ft 503 kts 174°
2026-04-20 05:23 39.27203 115.86690 30190 ft 499 kts 177°
2026-04-20 05:23 39.23870 115.87235 30172 ft 466 kts 196°
2026-04-20 05:23 39.20855 115.86533 30149 ft 433 kts 213°
2026-04-20 05:24 39.15554 115.83289 30181 ft 413 kts 224°
2026-04-20 05:24 39.13185 115.81282 30162 ft 399 kts 233°
2026-04-20 05:24 39.11269 115.78822 30217 ft 385 kts 239°
2026-04-20 05:25 39.07844 115.73568 30199 ft 380 kts 243°
2026-04-20 05:25 39.04659 115.68208 30208 ft 379 kts 244°
2026-04-20 05:26 39.01516 115.62780 30201 ft 379 kts 245°
2026-04-20 05:26 38.98375 115.57314 30207 ft 380 kts 245°
2026-04-20 05:27 38.95239 115.51860 30216 ft 379 kts 245°
2026-04-20 05:27 38.93971 115.49035 30211 ft 363 kts 256°
2026-04-20 05:27 38.92940 115.46061 30198 ft 366 kts 255°
2026-04-20 05:28 38.90838 115.40123 30207 ft 365 kts 255°
2026-04-20 05:28 38.88751 115.34185 30211 ft 365 kts 255°
2026-04-20 05:29 38.86658 115.28230 30215 ft 367 kts 255°
2026-04-20 05:29 38.84572 115.22307 30219 ft 366 kts 255°
2026-04-20 05:30 38.82472 115.16355 30213 ft 366 kts 255°
2026-04-20 05:30 38.80371 115.10413 30219 ft 366 kts 255°
2026-04-20 05:31 38.78259 115.04454 30224 ft 366 kts 255°
2026-04-20 05:31 38.76164 114.98549 30214 ft 368 kts 254°
2026-04-20 05:32 38.74043 114.92576 30226 ft 368 kts 254°
2026-04-20 05:32 38.71921 114.86614 30235 ft 368 kts 254°
2026-04-20 05:33 38.69795 114.80652 30239 ft 368 kts 254°
2026-04-20 05:33 38.67666 114.74692 30235 ft 368 kts 254°
2026-04-20 05:34 38.65550 114.68780 30240 ft 368 kts 254°
2026-04-20 05:34 38.62346 114.59859 30235 ft 368 kts 253°
2026-04-20 05:35 38.60192 114.53922 30232 ft 368 kts 253°
2026-04-20 05:35 38.58058 114.48023 30247 ft 368 kts 253°
2026-04-20 05:36 38.55907 114.42082 30243 ft 368 kts 253°
2026-04-20 05:36 38.53752 114.36145 30250 ft 369 kts 253°
2026-04-20 05:37 38.51587 114.30188 30246 ft 370 kts 253°
2026-04-20 05:37 38.49419 114.24240 30246 ft 370 kts 253°
2026-04-20 05:38 38.47262 114.18332 30244 ft 370 kts 253°
2026-04-20 05:38 38.45087 114.12385 30237 ft 369 kts 253°
2026-04-20 05:39 38.42911 114.06444 30220 ft 370 kts 253°
2026-04-20 05:39 38.40714 114.00453 30224 ft 375 kts 253°
2026-04-20 05:40 38.38523 113.94490 30200 ft 374 kts 253°
2026-04-20 05:40 38.36317 113.88498 30237 ft 373 kts 253°
2026-04-20 05:41 38.34112 113.82531 30241 ft 372 kts 252°
2026-04-20 05:41 38.31871 113.76583 30234 ft 373 kts 252°
2026-04-20 05:42 38.29636 113.70656 30241 ft 373 kts 253°
2026-04-20 05:42 38.27401 113.64719 30251 ft 373 kts 252°
2026-04-20 05:43 38.25155 113.58778 30234 ft 373 kts 252°
2026-04-20 05:43 38.22898 113.52826 30209 ft 374 kts 252°
2026-04-20 05:44 38.20652 113.46919 30234 ft 373 kts 252°
2026-04-20 05:44 38.18397 113.40982 30253 ft 373 kts 252°
2026-04-20 05:45 38.16144 113.35009 30261 ft 374 kts 253°
2026-04-20 05:45 38.13921 113.29027 30251 ft 375 kts 252°
2026-04-20 05:46 38.11689 113.23051 30257 ft 375 kts 252°
2026-04-20 05:46 38.09460 113.17089 30277 ft 377 kts 253°
2026-04-20 05:47 38.07214 113.11099 30246 ft 375 kts 252°
2026-04-20 05:47 38.04959 113.05094 30269 ft 377 kts 252°
2026-04-20 05:48 38.02703 112.99097 30269 ft 377 kts 252°
2026-04-20 05:48 38.00458 112.93141 30300 ft 377 kts 252°
2026-04-20 05:49 37.98193 112.87141 30278 ft 377 kts 252°
2026-04-20 05:49 37.95924 112.81141 30235 ft 379 kts 252°
2026-04-20 05:50 37.93630 112.75101 30256 ft 382 kts 252°
2026-04-20 05:50 37.91347 112.69090 30287 ft 382 kts 252°
2026-04-20 05:51 37.89049 112.63051 30296 ft 381 kts 252°
2026-04-20 05:51 37.86649 112.57051 30296 ft 383 kts 250°
2026-04-20 05:52 37.84133 112.51101 30282 ft 383 kts 250°
2026-04-20 05:52 37.81646 112.45190 30219 ft 383 kts 250°
2026-04-20 05:53 37.79133 112.39215 30237 ft 387 kts 250°
2026-04-20 05:53 37.76702 112.33186 30262 ft 382 kts 253°
2026-04-20 05:54 37.74408 112.27129 30248 ft 381 kts 252°
2026-04-20 05:54 37.72091 112.21085 30246 ft 383 kts 252°
2026-04-20 05:55 37.69779 112.15067 30281 ft 385 kts 252°
2026-04-20 05:55 37.67444 112.09011 30263 ft 383 kts 252°
2026-04-20 05:56 37.65103 112.02946 30246 ft 386 kts 251°
2026-04-20 05:56 37.62751 111.96870 30238 ft 385 kts 252°
2026-04-20 05:57 37.60420 111.90853 30243 ft 384 kts 252°
2026-04-20 05:57 37.58074 111.84805 30237 ft 385 kts 251°
2026-04-20 05:58 37.55706 111.78726 30282 ft 385 kts 251°
2026-04-20 05:58 37.54526 111.75702 30160 ft 385 kts 251°
2026-04-20 05:58 37.53352 111.72696 30224 ft 383 kts 251°
2026-04-20 05:59 37.50818 111.66757 30220 ft 397 kts 239°
2026-04-20 05:59 37.46902 111.61694 30259 ft 405 kts 234°
2026-04-20 06:00 37.42909 111.56715 30364 ft 407 kts 233°
2026-04-20 06:00 37.40917 111.54223 30230 ft 402 kts 234°
2026-04-20 06:00 37.38928 111.51729 30276 ft 406 kts 234°
2026-04-20 06:01 37.34938 111.46778 30286 ft 405 kts 234°
2026-04-20 06:01 37.30928 111.41810 30215 ft 404 kts 233°
2026-04-20 06:02 37.26912 111.36856 30258 ft 405 kts 233°
2026-04-20 06:02 37.22858 111.31955 30217 ft 401 kts 234°
2026-04-20 06:03 37.18882 111.26974 30274 ft 407 kts 233°
2026-04-20 06:03 37.14885 111.22054 30235 ft 405 kts 232°
2026-04-20 06:04 37.10852 111.17106 30275 ft 406 kts 232°
2026-04-20 06:04 37.06814 111.12159 30237 ft 406 kts 231°
2026-04-20 06:05 37.02796 111.07236 30211 ft 406 kts 231°
2026-04-20 06:05 36.98741 111.02292 30254 ft 407 kts 231°
2026-04-20 06:06 36.94692 110.97355 30263 ft 407 kts 231°
2026-04-20 06:06 36.90634 110.92414 30266 ft 407 kts 231°
2026-04-20 06:07 36.86603 110.87512 30249 ft 408 kts 231°
2026-04-20 06:07 36.84823 110.84828 30224 ft 396 kts 244°
2026-04-20 06:07 36.83389 110.81911 30289 ft 399 kts 241°
2026-04-20 06:08 36.80273 110.76220 30305 ft 396 kts 242°
2026-04-20 06:08 36.77189 110.70458 30263 ft 399 kts 241°
2026-04-20 06:09 36.74124 110.64709 30222 ft 399 kts 241°
2026-04-20 06:09 36.71048 110.58939 30257 ft 400 kts 241°
2026-04-20 06:10 36.67964 110.53171 30260 ft 401 kts 241°
2026-04-20 06:10 36.64873 110.47397 30264 ft 400 kts 241°
2026-04-20 06:11 36.61797 110.41663 30240 ft 402 kts 241°
2026-04-20 06:11 36.58690 110.35877 30270 ft 402 kts 241°
2026-04-20 06:12 36.55583 110.30103 30247 ft 402 kts 241°
2026-04-20 06:12 36.52471 110.24325 30246 ft 401 kts 241°
2026-04-20 06:13 36.49383 110.18606 30273 ft 402 kts 241°
2026-04-20 06:13 36.46273 110.12854 30228 ft 400 kts 241°
2026-04-20 06:14 36.43157 110.07104 30260 ft 403 kts 240°
2026-04-20 06:14 36.40023 110.01326 30272 ft 404 kts 240°
2026-04-20 06:15 36.36901 109.95592 30310 ft 402 kts 240°
2026-04-20 06:15 36.33769 109.89827 30260 ft 404 kts 240°
2026-04-20 06:16 36.30620 109.84054 30262 ft 403 kts 240°
2026-04-20 06:16 36.27479 109.78306 30240 ft 403 kts 240°
2026-04-20 06:17 36.24315 109.72521 30280 ft 408 kts 240°
2026-04-20 06:17 36.21148 109.66746 30296 ft 407 kts 240°
2026-04-20 06:18 36.17969 109.60954 30274 ft 407 kts 240°
2026-04-20 06:18 36.14778 109.55152 30285 ft 408 kts 240°
2026-04-20 06:19 36.11585 109.49355 30249 ft 407 kts 240°
2026-04-20 06:19 36.08408 109.43598 30240 ft 410 kts 240°
2026-04-20 06:20 36.05178 109.37755 30262 ft 412 kts 240°
2026-04-20 06:20 36.01947 109.31916 30271 ft 412 kts 240°
2026-04-20 06:21 35.98710 109.26078 30230 ft 411 kts 240°
2026-04-20 06:21 35.95105 109.20653 30256 ft 421 kts 221°
2026-04-20 06:22 35.92516 109.18842 30270 ft 432 kts 214°
2026-04-20 06:22 35.89832 109.17168 30246 ft 433 kts 213°
2026-04-20 06:22 35.84377 109.13926 30260 ft 440 kts 207°
2026-04-20 06:23 35.78628 109.11322 30281 ft 441 kts 206°
2026-04-20 06:23 35.72896 109.08765 30263 ft 441 kts 206°
2026-04-20 06:24 35.67125 109.06198 30244 ft 441 kts 206°
2026-04-20 06:24 35.61346 109.03633 30264 ft 442 kts 206°
2026-04-20 06:25 35.55565 109.01071 30269 ft 442 kts 206°
2026-04-20 06:25 35.49826 108.98532 30268 ft 441 kts 206°
2026-04-20 06:26 35.44047 108.95979 30257 ft 442 kts 206°
2026-04-20 06:26 35.38256 108.93424 30260 ft 442 kts 205°
2026-04-20 06:27 35.32468 108.90874 30268 ft 442 kts 205°
2026-04-20 06:27 35.26672 108.88326 30269 ft 443 kts 205°
2026-04-20 06:28 35.20912 108.85796 30256 ft 443 kts 205°
2026-04-20 06:28 35.15096 108.83245 30266 ft 444 kts 205°
2026-04-20 06:29 35.09283 108.80701 30292 ft 443 kts 205°
2026-04-20 06:29 35.03509 108.78176 30286 ft 444 kts 205°
2026-04-20 06:30 34.97700 108.75641 30267 ft 442 kts 205°
2026-04-20 06:30 34.91905 108.73115 30276 ft 442 kts 205°
2026-04-20 06:31 34.86106 108.70592 30270 ft 443 kts 205°
2026-04-20 06:31 34.80307 108.68072 30268 ft 443 kts 205°
2026-04-20 06:32 34.74541 108.65570 30273 ft 443 kts 205°
2026-04-20 06:32 34.68737 108.63055 30279 ft 443 kts 205°
2026-04-20 06:33 34.62937 108.60546 30280 ft 443 kts 205°
2026-04-20 06:33 34.57125 108.58035 30281 ft 443 kts 205°
2026-04-20 06:34 34.51365 108.55550 30272 ft 442 kts 205°
2026-04-20 06:35 34.42680 108.51813 30276 ft 441 kts 205°
2026-04-20 06:35 34.36892 108.49326 30278 ft 442 kts 205°
2026-04-20 06:36 34.31099 108.46840 30273 ft 441 kts 204°
2026-04-20 06:36 34.25352 108.44378 30275 ft 441 kts 204°
2026-04-20 06:37 34.19565 108.41902 30273 ft 441 kts 204°
2026-04-20 06:37 34.13776 108.39429 30270 ft 441 kts 204°
2026-04-20 06:38 34.07984 108.36959 30256 ft 441 kts 204°
2026-04-20 06:38 34.02230 108.34507 30266 ft 442 kts 204°
2026-04-20 06:39 33.96436 108.32045 30228 ft 441 kts 204°
2026-04-20 06:39 33.90656 108.29588 30276 ft 442 kts 204°
2026-04-20 06:40 33.84889 108.27143 30268 ft 440 kts 204°
2026-04-20 06:40 33.79120 108.24699 30269 ft 439 kts 204°
2026-04-20 06:41 33.73359 108.22262 30260 ft 439 kts 204°
2026-04-20 06:41 33.67602 108.19831 30260 ft 439 kts 204°
2026-04-20 06:42 33.62812 108.17811 30257 ft 439 kts 204°
2026-04-20 06:42 33.56143 108.15002 30232 ft 436 kts 204°
2026-04-20 06:43 33.50417 108.12594 30231 ft 436 kts 204°
2026-04-20 06:43 33.44687 108.10188 30222 ft 436 kts 204°
2026-04-20 06:44 33.39881 108.08320 30226 ft 438 kts 201°
2026-04-20 06:44 33.33102 108.05930 30219 ft 436 kts 201°
2026-04-20 06:45 33.27292 108.03850 30219 ft 436 kts 201°
2026-04-20 06:45 33.22466 108.02123 30212 ft 435 kts 201°
2026-04-20 06:46 33.16664 108.00052 30229 ft 436 kts 201°
2026-04-20 06:46 33.09918 107.97645 30227 ft 436 kts 201°
2026-04-20 06:47 33.05048 107.95910 30218 ft 436 kts 201°
2026-04-20 06:47 32.99276 107.93857 30225 ft 436 kts 201°
2026-04-20 06:48 32.93468 107.91793 30211 ft 435 kts 201°
2026-04-20 06:48 32.87662 107.89733 30239 ft 437 kts 201°
2026-04-20 06:49 32.81834 107.87668 30214 ft 437 kts 201°
2026-04-20 06:49 32.76053 107.85622 30201 ft 437 kts 201°
2026-04-20 06:50 32.70231 107.83565 30160 ft 436 kts 201°
2026-04-20 06:50 32.64421 107.81516 30183 ft 436 kts 201°
2026-04-20 06:51 32.58596 107.79462 30188 ft 437 kts 201°
2026-04-20 06:51 32.52770 107.77412 30165 ft 437 kts 201°
2026-04-20 06:52 32.46988 107.75379 30219 ft 438 kts 201°
2026-04-20 06:52 32.41161 107.73334 30141 ft 436 kts 201°
2026-04-20 06:53 32.35326 107.71288 30155 ft 438 kts 201°
2026-04-20 06:53 32.29484 107.69244 30147 ft 438 kts 201°
2026-04-20 06:54 32.23676 107.67212 30143 ft 438 kts 201°
2026-04-20 06:54 32.17833 107.65176 30130 ft 439 kts 201°
2026-04-20 06:55 32.11970 107.63138 30114 ft 439 kts 201°
2026-04-20 06:55 32.06105 107.61102 30111 ft 439 kts 201°
2026-04-20 06:56 32.00281 107.59083 30088 ft 439 kts 201°
2026-04-20 06:56 31.94415 107.57052 30091 ft 439 kts 201°
2026-04-20 06:57 31.88548 107.55023 30076 ft 440 kts 201°
2026-04-20 06:57 31.82659 107.52990 30089 ft 441 kts 201°
2026-04-20 06:58 31.76815 107.50974 30065 ft 441 kts 201°
2026-04-20 06:58 31.70933 107.48949 30054 ft 441 kts 201°
2026-04-20 06:59 31.65043 107.46923 30046 ft 441 kts 200°
2026-04-20 06:59 31.59140 107.44895 30041 ft 442 kts 200°
2026-04-20 07:00 31.53245 107.42873 30048 ft 442 kts 201°
2026-04-20 07:00 31.47383 107.40865 30036 ft 442 kts 200°
2026-04-20 07:01 31.41484 107.38845 30039 ft 442 kts 201°
2026-04-20 07:01 31.38672 107.37465 30027 ft 435 kts 212°
2026-04-20 07:01 31.35980 107.35815 30009 ft 439 kts 210°
2026-04-20 07:02 31.30583 107.32608 30016 ft 438 kts 211°
2026-04-20 07:02 31.25149 107.29366 30038 ft 439 kts 211°
2026-04-20 07:03 31.19723 107.26131 30028 ft 438 kts 211°
2026-04-20 07:03 31.14308 107.22907 30018 ft 438 kts 210°
2026-04-20 07:04 31.08862 107.19670 30022 ft 439 kts 210°
2026-04-20 07:04 31.03460 107.16462 30027 ft 439 kts 210°
2026-04-20 07:05 30.98022 107.13237 30015 ft 438 kts 210°
2026-04-20 07:05 30.92598 107.10024 30024 ft 438 kts 210°
2026-04-20 07:06 30.87157 107.06806 30023 ft 438 kts 210°
2026-04-20 07:06 30.81757 107.03616 30034 ft 439 kts 210°
2026-04-20 07:07 30.76309 107.00401 30035 ft 439 kts 210°
2026-04-20 07:07 30.70790 106.97382 30007 ft 443 kts 199°
2026-04-20 07:07 30.67716 106.96908 30027 ft 450 kts 184°
2026-04-20 07:08 30.64569 106.96893 30007 ft 453 kts 184°
2026-04-20 07:08 30.58263 106.96902 30032 ft 454 kts 184°
2026-04-20 07:09 30.51993 106.96967 30033 ft 454 kts 184°
2026-04-20 07:09 30.45681 106.97042 30024 ft 453 kts 184°
2026-04-20 07:10 30.39368 106.97117 30013 ft 454 kts 183°
2026-04-20 07:10 30.33047 106.97110 30020 ft 454 kts 185°
2026-04-20 07:11 30.26776 106.97026 30022 ft 454 kts 185°
2026-04-20 07:11 30.20461 106.96952 30034 ft 454 kts 185°
2026-04-20 07:12 30.14238 106.96881 30026 ft 453 kts 185°
2026-04-20 07:12 30.07834 106.96808 30032 ft 454 kts 185°
2026-04-20 07:13 30.01523 106.96735 30033 ft 454 kts 185°
2026-04-20 07:13 29.95249 106.96663 30037 ft 453 kts 185°
2026-04-20 07:14 29.88945 106.96591 30018 ft 453 kts 185°
2026-04-20 07:14 29.82629 106.96519 30038 ft 453 kts 185°
2026-04-20 07:15 29.76342 106.96448 30035 ft 451 kts 185°
2026-04-20 07:15 29.70106 106.96376 30039 ft 451 kts 185°
2026-04-20 07:16 29.63826 106.96305 30040 ft 451 kts 185°
2026-04-20 07:16 29.57546 106.96234 30017 ft 452 kts 185°
2026-04-20 07:17 29.51306 106.96163 30053 ft 446 kts 184°
2026-04-20 07:17 29.45104 106.96088 30055 ft 446 kts 184°
2026-04-20 07:18 29.38943 106.96013 30056 ft 446 kts 184°
2026-04-20 07:18 29.32740 106.95938 30052 ft 446 kts 184°
2026-04-20 07:19 29.26546 106.95864 30061 ft 444 kts 184°
2026-04-20 07:19 29.20364 106.95789 30050 ft 444 kts 184°
2026-04-20 07:20 29.14227 106.95715 30079 ft 444 kts 184°
2026-04-20 07:20 29.08045 106.95641 30059 ft 444 kts 184°
2026-04-20 07:21 29.01863 106.95566 30052 ft 444 kts 183°
2026-04-20 07:21 28.95653 106.95492 30078 ft 449 kts 183°
2026-04-20 07:22 28.89455 106.95417 30066 ft 448 kts 183°
2026-04-20 07:22 28.83216 106.95342 30077 ft 449 kts 183°
2026-04-20 07:23 28.76976 106.95268 30077 ft 449 kts 183°
2026-04-20 07:23 28.70726 106.95193 30062 ft 449 kts 183°
2026-04-20 07:24 28.64515 106.95119 30076 ft 450 kts 183°
2026-04-20 07:24 28.58248 106.95044 30060 ft 450 kts 183°
2026-04-20 07:25 28.51990 106.94970 30058 ft 450 kts 183°
2026-04-20 07:25 28.45727 106.94896 30052 ft 450 kts 183°
2026-04-20 07:26 28.39502 106.94822 30060 ft 451 kts 183°
2026-04-20 07:26 28.33227 106.94748 30056 ft 451 kts 183°
2026-04-20 07:27 28.26952 106.94673 30032 ft 451 kts 183°
2026-04-20 07:27 28.20667 106.94885 30053 ft 452 kts 180°
2026-04-20 07:28 28.14423 106.95217 30032 ft 452 kts 180°
2026-04-20 07:28 28.08138 106.95526 30036 ft 452 kts 180°
2026-04-20 07:29 28.01851 106.95861 30032 ft 452 kts 180°
2026-04-20 07:29 27.95575 106.96191 30042 ft 452 kts 180°
2026-04-20 07:30 27.89334 106.96520 30023 ft 452 kts 180°
2026-04-20 07:30 27.83039 106.96853 30034 ft 454 kts 180°
2026-04-20 07:31 27.76736 106.97185 30036 ft 453 kts 180°
2026-04-20 07:31 27.70434 106.97517 30031 ft 453 kts 180°
2026-04-20 07:32 27.64132 106.97849 30033 ft 453 kts 180°
2026-04-20 07:32 27.57871 106.98178 30020 ft 454 kts 180°
2026-04-20 07:33 27.51541 106.98510 30035 ft 456 kts 180°
2026-04-20 07:33 27.45207 106.98845 30039 ft 456 kts 180°
2026-04-20 07:34 27.38937 106.99178 29828 ft 441 kts 180°
2026-04-20 07:34 27.35897 106.99339 29317 ft 436 kts 180°
2026-04-20 07:34 27.32876 106.99499 28734 ft 434 kts 180°
2026-04-20 07:35 27.26925 106.99814 27665 ft 428 kts 180°
2026-04-20 07:35 27.23961 106.99971 27140 ft 425 kts 180°
2026-04-20 07:35 27.21012 107.00127 26616 ft 423 kts 180°
2026-04-20 07:35 27.18086 107.00282 26095 ft 421 kts 180°
2026-04-20 07:36 27.15163 107.00436 25584 ft 419 kts 180°
2026-04-20 07:36 27.12292 107.00587 25080 ft 418 kts 180°
2026-04-20 07:36 27.09393 107.00740 24573 ft 416 kts 180°
2026-04-20 07:36 27.06505 107.00893 24074 ft 415 kts 180°
2026-04-20 07:37 27.03623 107.01045 23577 ft 414 kts 180°
2026-04-20 07:37 27.00766 107.01194 23001 ft 413 kts 180°
2026-04-20 07:37 26.97890 107.01346 22504 ft 410 kts 180°
2026-04-20 07:37 26.95047 107.01496 22025 ft 407 kts 180°
2026-04-20 07:38 26.92230 107.01644 21553 ft 404 kts 180°
2026-04-20 07:38 26.89427 107.01792 21101 ft 402 kts 180°
2026-04-20 07:38 26.86684 107.01935 20657 ft 399 kts 180°
2026-04-20 07:38 26.83918 107.02081 20208 ft 396 kts 180°
2026-04-20 07:39 26.81184 107.02017 19720 ft 391 kts 192°
2026-04-20 07:39 26.78531 107.01374 19273 ft 389 kts 194°
2026-04-20 07:39 26.75906 107.00748 18858 ft 382 kts 194°
2026-04-20 07:39 26.73340 107.00126 18455 ft 373 kts 195°
2026-04-20 07:40 26.70835 106.99515 18020 ft 364 kts 195°
2026-04-20 07:40 26.68384 106.98915 17596 ft 355 kts 195°
2026-04-20 07:40 26.66033 106.98340 17212 ft 348 kts 195°
2026-04-20 07:40 26.63666 106.97760 16810 ft 351 kts 195°
2026-04-20 07:41 26.61261 106.97171 16429 ft 356 kts 195°
2026-04-20 07:41 26.58834 106.96577 16042 ft 358 kts 195°
2026-04-20 07:41 26.56406 106.95983 15664 ft 357 kts 195°
2026-04-20 07:41 26.53983 106.95391 15271 ft 356 kts 195°
2026-04-20 07:42 26.51572 106.94802 14885 ft 354 kts 195°
2026-04-20 07:42 26.49209 106.94225 14499 ft 352 kts 195°
2026-04-20 07:42 26.46798 106.93629 14186 ft 347 kts 192°
2026-04-20 07:42 26.44503 106.93070 14007 ft 338 kts 194°
2026-04-20 07:43 26.42239 106.92526 13877 ft 328 kts 194°
2026-04-20 07:43 26.40040 106.91992 13731 ft 319 kts 194°
2026-04-20 07:43 26.37899 106.91473 13572 ft 311 kts 194°
2026-04-20 07:43 26.35814 106.90966 13439 ft 304 kts 194°
2026-04-20 07:44 26.33762 106.90467 13294 ft 299 kts 195°
2026-04-20 07:44 26.31747 106.89979 13098 ft 293 kts 195°
2026-04-20 07:44 26.29777 106.89500 12980 ft 287 kts 195°
2026-04-20 07:44 26.27844 106.89030 12791 ft 281 kts 195°
2026-04-20 07:45 26.25944 106.88612 12563 ft 276 kts 193°
2026-04-20 07:45 26.24088 106.88245 12284 ft 273 kts 193°
2026-04-20 07:45 26.22231 106.87875 12041 ft 270 kts 193°
2026-04-20 07:45 26.20438 106.87319 11809 ft 266 kts 212°
2026-04-20 07:46 26.19138 106.85958 11620 ft 252 kts 243°
2026-04-20 07:46 26.18670 106.84152 11689 ft 235 kts 269°
2026-04-20 07:46 26.18799 106.82442 11754 ft 212 kts 277°
2026-04-20 07:46 26.18997 106.80844 11385 ft 209 kts 278°
2026-04-20 07:47 26.19220 106.79212 10712 ft 218 kts 278°
2026-04-20 07:47 26.19463 106.77533 10084 ft 228 kts 278°
2026-04-20 07:47 26.19868 106.75819 9504 ft 231 kts 299°
2026-04-20 07:47 26.21012 106.74648 8879 ft 224 kts 337°
2026-04-20 07:48 26.22511 106.74437 8328 ft 216 kts
2026-04-20 07:48 26.23958 106.74716 7900 ft 206 kts
2026-04-20 07:48 26.25345 106.74976 7422 ft 199 kts
2026-04-20 07:48 26.26681 106.75232 7018 ft 191 kts
2026-04-20 07:49 26.27978 106.75484 7045 ft 191 kts
2026-04-20 07:49 26.29255 106.75730 7002 ft 177 kts
2026-04-20 07:49 26.30403 106.75953 7044 ft 167 kts
2026-04-20 07:49 26.31553 106.76175 7107 ft 169 kts
2026-04-20 07:50 26.32711 106.76393 7076 ft 168 kts
2026-04-20 07:50 26.33856 106.76614 6975 ft 166 kts
2026-04-20 07:50 26.34991 106.76829 6929 ft 165 kts
2026-04-20 07:50 26.36127 106.77063 6681 ft 167 kts
2026-04-20 07:51 26.37225 106.77276 6804 ft 160 kts
2026-04-20 07:51 26.38385 106.77488 5956 ft 185 kts
2026-04-20 07:51 26.39614 106.77742 5794 ft 157 kts
2026-04-20 07:51 26.40680 106.77922 5896 ft 160 kts
2026-04-20 07:52 26.41980 106.78172 4628 ft 200 kts 11°
2026-04-20 07:52 26.43123 106.78392 5366 ft 161 kts
2026-04-20 07:52 26.44310 106.78606 4759 ft 175 kts 11°
2026-04-20 07:52 26.45453 106.78828 4801 ft 164 kts
2026-04-20 07:53 26.46559 106.79049 4597 ft 159 kts 12°
2026-04-20 07:53 26.47635 106.79281 4464 ft 157 kts 11°
2026-04-20 07:53 26.48717 106.79499 4234 ft 158 kts 10°
2026-04-20 07:53 26.49788 106.79705 4139 ft 159 kts
2026-04-20 07:54 26.50890 106.79908 3989 ft 161 kts 11°
2026-04-20 07:54 26.51990 106.80134 3850 ft 163 kts 10°
2026-04-20 07:54 26.53113 106.80347 3764 ft 160 kts
2026-04-20 07:54 26.54063 106.80533 3738 ft 105 kts 10°
2026-04-20 07:55 26.54560 106.80628 3738 ft 41 kts 10°
2026-04-20 07:55 26.54691 106.80608 3737 ft 14 kts 296°
2026-04-20 07:55 26.54711 106.80505 3740 ft 13 kts 282°
2026-04-20 07:55 26.54729 106.80412 3743 ft 11 kts 282°
2026-04-20 07:56 26.54739 106.80333 3745 ft 10 kts 276°
2026-04-20 07:56 26.54752 106.80251 3745 ft 12 kts 282°
2026-04-20 07:56 26.54769 106.80154 3744 ft 14 kts 279°
2026-04-20 07:56 26.54785 106.80042 3743 ft 16 kts 278°
2026-04-20 07:57 26.54811 106.79972 3743 ft 7 kts 334°
2026-04-20 07:57 26.54859 106.79955 3742 ft 8 kts 342°
2026-04-20 07:57 26.54876 106.79949 3742 ft 2 kts 342°
2026-04-20 07:57 26.54877 106.79949 3742 ft 0 kts 342°